�������l�o���
Date,Time,MP-1(��Sv/h),MP-2(��Sv/h),MP-3(��Sv/h),MP-4(��Sv/h),MP-5(��Sv/h),MP-6(��Sv/h),MP-7(��Sv/h),MP-8(��Sv/h),����,����(m/s),���J
2017/07/11,00:00,1.008,1.610,1.072,1.899,1.333,0.534,0.976,0.897,-,CALM,��
2017/07/11,00:10,1.009,1.608,1.072,1.903,1.334,0.533,0.974,0.897,��쓌,1.2,��
2017/07/11,00:20,1.007,1.608,1.071,1.900,1.332,0.534,0.974,0.897,��쓌,2.0,��
2017/07/11,00:30,1.007,1.607,1.072,1.897,1.330,0.532,0.976,0.899,��,1.7,��
2017/07/11,00:40,1.007,1.608,1.069,1.901,1.333,0.531,0.975,0.895,��,2.5,��
2017/07/11,00:50,1.005,1.608,1.072,1.901,1.331,0.533,0.974,0.897,��쐼,2.8,��
2017/07/11,01:00,1.008,1.608,1.071,1.903,1.336,0.534,0.975,0.898,��쐼,4.1,��
2017/07/11,01:10,1.007,1.607,1.070,1.899,1.330,0.534,0.974,0.895,��쐼,3.8,��
2017/07/11,01:20,1.006,1.606,1.072,1.901,1.333,0.533,0.974,0.898,��,3.0,��
2017/07/11,01:30,1.010,1.607,1.068,1.902,1.333,0.532,0.974,0.896,��쐼,1.7,��
2017/07/11,01:40,1.007,1.609,1.070,1.903,1.334,0.535,0.975,0.897,�쐼,0.6,��
2017/07/11,01:50,1.007,1.607,1.070,1.902,1.334,0.534,0.976,0.897,��,1.7,��
2017/07/11,02:00,1.007,1.607,1.069,1.899,1.332,0.532,0.974,0.899,��쓌,0.9,��
2017/07/11,02:10,1.007,1.608,1.068,1.901,1.332,0.535,0.973,0.897,��쓌,1.2,��
2017/07/11,02:20,1.006,1.606,1.071,1.903,1.331,0.532,0.973,0.898,��쓌,1.2,��
2017/07/11,02:30,1.007,1.609,1.069,1.901,1.331,0.533,0.975,0.897,��쓌,1.9,��
2017/07/11,02:40,1.007,1.608,1.072,1.901,1.332,0.533,0.975,0.897,��,0.8,��
2017/07/11,02:50,1.008,1.606,1.068,1.900,1.331,0.533,0.974,0.895,��쐼,1.1,��
2017/07/11,03:00,1.006,1.608,1.070,1.901,1.329,0.535,0.974,0.896,��쐼,1.2,��
2017/07/11,03:10,1.006,1.607,1.071,1.901,1.330,0.533,0.975,0.897,��쐼,2.2,��
2017/07/11,03:20,1.005,1.607,1.069,1.901,1.329,0.534,0.974,0.897,��쐼,2.6,��
2017/07/11,03:30,1.008,1.609,1.071,1.901,1.330,0.534,0.973,0.896,��쐼,2.2,��
2017/07/11,03:40,1.008,1.608,1.068,1.896,1.331,0.534,0.973,0.898,��쐼,2.3,��
2017/07/11,03:50,1.005,1.608,1.070,1.899,1.332,0.534,0.974,0.897,��쐼,2.5,��
2017/07/11,04:00,1.006,1.606,1.068,1.899,1.328,0.535,0.974,0.896,��쐼,2.3,��
2017/07/11,04:10,1.005,1.607,1.070,1.898,1.330,0.536,0.972,0.898,��쐼,2.0,��
2017/07/11,04:20,1.005,1.607,1.071,1.898,1.332,0.534,0.975,0.897,��쐼,1.7,��
2017/07/11,04:30,1.005,1.605,1.068,1.899,1.330,0.533,0.973,0.895,��,1.2,��
2017/07/11,04:40,1.004,1.606,1.067,1.900,1.330,0.534,0.974,0.896,��쐼,0.6,��
2017/07/11,04:50,1.006,1.606,1.068,1.901,1.331,0.535,0.974,0.897,��쓌,0.9,��
2017/07/11,05:00,1.005,1.607,1.070,1.897,1.332,0.534,0.974,0.895,��,1.4,��
2017/07/11,05:10,1.002,1.607,1.068,1.898,1.330,0.535,0.975,0.895,��,2.0,��
2017/07/11,05:20,1.006,1.608,1.067,1.896,1.332,0.534,0.975,0.897,��쐼,2.0,��
2017/07/11,05:30,1.006,1.604,1.068,1.901,1.330,0.534,0.975,0.897,��쐼,2.0,��
2017/07/11,05:40,1.007,1.604,1.069,1.899,1.332,0.534,0.975,0.897,��쐼,2.3,��
2017/07/11,05:50,1.008,1.606,1.067,1.900,1.329,0.534,0.975,0.897,��,3.0,��
2017/07/11,06:00,1.007,1.608,1.068,1.898,1.329,0.535,0.976,0.896,��쐼,2.2,��
2017/07/11,06:10,1.006,1.608,1.068,1.900,1.333,0.535,0.977,0.897,�쐼,1.7,��
2017/07/11,06:20,1.005,1.604,1.069,1.897,1.332,0.536,0.975,0.896,��쐼,0.6,��
2017/07/11,06:30,1.002,1.606,1.069,1.896,1.329,0.534,0.975,0.897,��,0.9,��
2017/07/11,06:40,1.003,1.605,1.071,1.898,1.329,0.534,0.976,0.896,��쓌,1.7,��
2017/07/11,06:50,1.006,1.602,1.071,1.898,1.330,0.534,0.975,0.898,��쓌,2.3,��
2017/07/11,07:00,1.001,1.602,1.070,1.900,1.329,0.533,0.975,0.897,��,2.9,��
2017/07/11,07:10,1.005,1.602,1.071,1.902,1.333,0.532,0.973,0.899,��,2.6,��
2017/07/11,07:20,1.005,1.605,1.069,1.904,1.330,0.533,0.975,0.897,��쐼,1.9,��
2017/07/11,07:30,1.006,1.609,1.070,1.902,1.329,0.534,0.974,0.898,��쓌,0.9,��
2017/07/11,07:40,1.006,1.604,1.072,1.900,1.330,0.534,0.976,0.899,��쓌,2.6,��
2017/07/11,07:50,1.005,1.602,1.070,1.899,1.330,0.534,0.976,0.896,��,2.8,��
2017/07/11,08:00,1.005,1.604,1.071,1.901,1.334,0.534,0.973,0.896,��,2.0,��
2017/07/11,08:10,1.006,1.607,1.071,1.899,1.333,0.534,0.974,0.895,��쓌,3.5,��
2017/07/11,08:20,1.005,1.609,1.069,1.903,1.334,0.535,0.972,0.893,��,3.8,��
2017/07/11,08:30,1.007,1.609,1.070,1.904,1.331,0.535,0.976,0.895,��쓌,5.0,��
2017/07/11,08:40,1.008,1.609,1.068,1.903,1.332,0.535,0.975,0.897,��,5.7,��
2017/07/11,08:50,1.007,1.609,1.070,1.903,1.333,0.535,0.975,0.895,��쓌,7.4,��
2017/07/11,09:00,1.009,1.608,1.070,1.903,1.331,0.533,0.974,0.896,��쓌,5.7,��
2017/07/11,09:10,1.010,1.609,1.069,1.907,1.334,0.536,0.975,0.896,��쓌,4.7,��
2017/07/11,09:20,1.008,1.612,1.069,1.907,1.337,0.536,0.977,0.897,��,5.4,��
2017/07/11,09:30,1.010,1.609,1.071,1.905,1.334,0.537,0.978,0.896,��,6.2,��
2017/07/11,09:40,1.010,1.615,1.070,1.906,1.335,0.536,0.978,0.898,��,7.3,��
2017/07/11,09:50,1.011,1.614,1.070,1.909,1.337,0.536,0.977,0.898,��,7.2,��
2017/07/11,10:00,1.011,1.609,1.071,1.906,1.335,0.534,0.978,0.896,��,8.4,��
2017/07/11,10:10,1.010,1.615,1.073,1.908,1.336,0.538,0.979,0.897,��쓌,8.2,��
2017/07/11,10:20,1.013,1.614,1.072,1.907,1.338,0.537,0.977,0.898,��쓌,10.9,��
2017/07/11,10:30,1.012,1.612,1.074,1.905,1.339,0.537,0.978,0.897,��,10.5,��
2017/07/11,10:40,1.014,1.614,1.072,1.907,1.339,0.538,0.978,0.897,��,10.2,��
2017/07/11,10:50,1.013,1.614,1.075,1.909,1.337,0.538,0.977,0.898,��,7.6,��
2017/07/11,11:00,1.013,1.616,1.072,1.906,1.339,0.538,0.978,0.899,��,8.7,��
2017/07/11,11:10,1.012,1.614,1.075,1.908,1.339,0.537,0.977,0.898,��쓌,9.2,��
2017/07/11,11:20,1.012,1.617,1.073,1.906,1.342,0.535,0.979,0.898,��,9.3,��
2017/07/11,11:30,1.011,1.616,1.075,1.905,1.343,0.536,0.978,0.897,��,10.2,��
2017/07/11,11:40,1.015,1.614,1.075,1.908,1.342,0.538,0.978,0.898,��,10.8,��
2017/07/11,11:50,1.012,1.618,1.075,1.907,1.341,0.537,0.977,0.897,��,11.4,��
2017/07/11,12:00,1.014,1.613,1.077,1.906,1.342,0.537,0.979,0.899,��,10.4,��
2017/07/11,12:10,1.012,1.616,1.074,1.911,1.343,0.535,0.979,0.899,��,9.8,��
2017/07/11,12:20,1.014,1.621,1.075,1.912,1.344,0.537,0.981,0.898,��쓌,11.6,��
2017/07/11,12:30,1.015,1.621,1.077,1.914,1.345,0.536,0.978,0.900,��쓌,9.8,��
2017/07/11,12:40,1.016,1.620,1.079,1.911,1.346,0.537,0.980,0.899,��쓌,10.7,��
2017/07/11,12:50,1.016,1.618,1.077,1.913,1.344,0.537,0.980,0.898,��,7.2,��
2017/07/11,13:00,1.015,1.619,1.078,1.913,1.344,0.537,0.980,0.897,��,12.5,��
2017/07/11,13:10,1.016,1.620,1.076,1.914,1.345,0.536,0.977,0.899,��,12.4,��
2017/07/11,13:20,1.017,1.621,1.078,1.913,1.344,0.537,0.981,0.901,��,10.9,��
2017/07/11,13:30,1.016,1.623,1.078,1.917,1.346,0.536,0.981,0.900,��,12.4,��
2017/07/11,13:40,1.018,1.620,1.076,1.913,1.346,0.536,0.981,0.900,��,12.5,��
2017/07/11,13:50,1.017,1.618,1.077,1.914,1.346,0.536,0.980,0.900,��,9.3,��
2017/07/11,14:00,1.016,1.619,1.079,1.915,1.345,0.535,0.981,0.900,��,10.5,��
2017/07/11,14:10,1.017,1.621,1.078,1.914,1.345,0.535,0.982,0.899,��쓌,11.0,��
2017/07/11,14:20,1.016,1.620,1.077,1.915,1.347,0.536,0.982,0.900,��쓌,11.8,��
2017/07/11,14:30,1.019,1.623,1.077,1.916,1.348,0.535,0.984,0.902,��,10.3,��
2017/07/11,14:40,1.019,1.622,1.075,1.918,1.346,0.535,0.981,0.900,��,9.4,��
2017/07/11,14:50,1.017,1.622,1.077,1.916,1.348,0.537,0.982,0.900,��,10.9,��
2017/07/11,15:00,1.019,1.623,1.076,1.919,1.350,0.537,0.982,0.902,��,9.2,��
2017/07/11,15:10,1.018,1.619,1.078,1.920,1.348,0.537,0.984,0.901,��,10.8,��
2017/07/11,15:20,1.016,1.622,1.077,1.922,1.347,0.537,0.983,0.901,��,8.7,��
2017/07/11,15:30,1.016,1.626,1.081,1.919,1.347,0.537,0.984,0.902,��,9.8,��
2017/07/11,15:40,1.017,1.624,1.079,1.921,1.350,0.537,0.984,0.902,��,7.4,��
2017/07/11,15:50,1.018,1.621,1.080,1.920,1.347,0.536,0.984,0.902,��,10.9,��
2017/07/11,16:00,1.017,1.623,1.080,1.920,1.348,0.536,0.985,0.901,��,10.5,��
2017/07/11,16:10,1.019,1.624,1.078,1.921,1.350,0.537,0.983,0.904,��,9.8,��
2017/07/11,16:20,1.020,1.624,1.079,1.920,1.348,0.536,0.982,0.901,��,9.8,��
2017/07/11,16:30,1.020,1.621,1.078,1.920,1.348,0.537,0.982,0.901,��,10.7,��
2017/07/11,16:40,1.019,1.622,1.080,1.922,1.348,0.536,0.981,0.901,��,8.3,��
2017/07/11,16:50,1.020,1.623,1.079,1.920,1.348,0.535,0.983,0.902,��,7.0,��
2017/07/11,17:00,1.019,1.621,1.080,1.918,1.349,0.536,0.982,0.900,��,7.7,��
2017/07/11,17:10,1.020,1.623,1.081,1.919,1.349,0.536,0.982,0.900,��,8.9,��
2017/07/11,17:20,1.020,1.621,1.079,1.920,1.349,0.535,0.982,0.900,��,9.1,��
2017/07/11,17:30,1.019,1.624,1.078,1.920,1.349,0.538,0.983,0.901,��,9.4,��
2017/07/11,17:40,1.019,1.624,1.080,1.924,1.349,0.536,0.982,0.899,��,7.9,��
2017/07/11,17:50,1.017,1.622,1.081,1.921,1.348,0.537,0.983,0.901,��,8.2,��
2017/07/11,18:00,1.018,1.626,1.080,1.920,1.349,0.538,0.982,0.901,��,8.8,��
2017/07/11,18:10,1.020,1.621,1.080,1.919,1.350,0.538,0.982,0.900,��,7.8,��
2017/07/11,18:20,1.018,1.622,1.079,1.919,1.349,0.536,0.982,0.901,��,8.4,��
2017/07/11,18:30,1.021,1.621,1.079,1.919,1.348,0.536,0.980,0.900,��,9.3,��
2017/07/11,18:40,1.018,1.623,1.079,1.920,1.346,0.537,0.981,0.900,��,10.3,��
2017/07/11,18:50,1.017,1.622,1.078,1.920,1.346,0.535,0.979,0.901,��,9.3,��
2017/07/11,19:00,1.019,1.620,1.079,1.920,1.347,0.537,0.980,0.899,��,7.5,��
2017/07/11,19:10,1.018,1.623,1.078,1.918,1.348,0.536,0.980,0.900,��,6.7,��
2017/07/11,19:20,1.015,1.621,1.077,1.919,1.346,0.535,0.979,0.901,��,7.1,��
2017/07/11,19:30,1.014,1.621,1.080,1.917,1.349,0.535,0.980,0.900,��,6.6,��
2017/07/11,19:40,1.017,1.624,1.081,1.918,1.352,0.536,0.979,0.899,��,6.9,��
2017/07/11,19:50,1.015,1.622,1.079,1.915,1.349,0.537,0.982,0.898,��,6.5,��
2017/07/11,20:00,1.016,1.622,1.080,1.917,1.348,0.536,0.980,0.899,��,6.9,��
2017/07/11,20:10,1.016,1.621,1.080,1.917,1.347,0.538,0.980,0.901,��쐼,6.6,��
2017/07/11,20:20,1.015,1.622,1.079,1.919,1.348,0.537,0.982,0.902,��,6.3,��
2017/07/11,20:30,1.016,1.620,1.080,1.921,1.347,0.536,0.979,0.899,��,6.0,��
2017/07/11,20:40,1.015,1.622,1.079,1.919,1.347,0.537,0.979,0.898,��,6.2,��
2017/07/11,20:50,1.016,1.621,1.079,1.918,1.347,0.538,0.980,0.897,��,5.9,��
2017/07/11,21:00,1.016,1.620,1.081,1.916,1.347,0.535,0.978,0.901,��,6.2,��
2017/07/11,21:10,1.016,1.621,1.079,1.917,1.345,0.536,0.980,0.900,��,5.6,��
2017/07/11,21:20,1.019,1.623,1.080,1.915,1.345,0.536,0.980,0.900,��,6.1,��
2017/07/11,21:30,1.017,1.620,1.079,1.918,1.347,0.535,0.981,0.899,��,5.4,��
2017/07/11,21:40,1.016,1.621,1.079,1.920,1.347,0.536,0.981,0.899,��,6.2,��
2017/07/11,21:50,1.016,1.621,1.079,1.918,1.347,0.537,0.980,0.900,��,6.1,��
2017/07/11,22:00,1.017,1.623,1.080,1.916,1.347,0.534,0.977,0.898,��,6.8,��
2017/07/11,22:10,1.017,1.623,1.082,1.919,1.347,0.538,0.979,0.899,��,6.8,��
2017/07/11,22:20,1.017,1.620,1.079,1.918,1.347,0.535,0.980,0.900,��,7.5,��
2017/07/11,22:30,1.016,1.621,1.077,1.915,1.348,0.537,0.980,0.898,��,7.0,��
2017/07/11,22:40,1.015,1.621,1.080,1.920,1.345,0.535,0.980,0.902,��,7.3,��
2017/07/11,22:50,1.017,1.621,1.080,1.919,1.346,0.537,0.978,0.901,��,7.1,��
2017/07/11,23:00,1.016,1.621,1.080,1.919,1.346,0.535,0.978,0.900,��,7.3,��
2017/07/11,23:10,1.016,1.621,1.079,1.918,1.345,0.536,0.978,0.900,��쐼,6.8,��
2017/07/11,23:20,1.013,1.620,1.079,1.919,1.343,0.536,0.981,0.903,��쐼,6.6,��
2017/07/11,23:30,1.014,1.623,1.080,1.916,1.344,0.536,0.980,0.900,��쐼,6.2,��
2017/07/11,23:40,1.015,1.621,1.081,1.917,1.347,0.537,0.980,0.899,��쐼,6.7,��
2017/07/11,23:50,1.014,1.620,1.079,1.917,1.346,0.536,0.981,0.901,��쐼,6.5,��
